{"data":{"norad_id":66190,"intl_designator":"2025-243P","name":"STARLINK-34863","alt_names":[],"object_type":"PAYLOAD","status":"ACTIVE","operator":null,"country":"US","launch_date":"2025-10-26","launch_site_code":"AFETR","launch_vehicle":null,"mission":null,"orbit_class":"UNKNOWN","rcs_meters":null,"size_class":null,"mass_kg":null,"dimensions":null,"purposes":["comms"],"wikipedia_slug":null,"has_3d_model":false,"image_url":null,"decayed_at":null,"tle_current":{"epoch":"2026-09-20T16:42:33.811488Z","epoch_age_seconds":83475,"freshness":"FRESH","line1":"1 66190U 25243P   26263.69622467  .00016415  00000+0  49584-3 0  9998","line2":"2 66190  53.1593  57.0979 0001225  83.2647 276.8495 15.34403954 50540","mean_motion":15.34403954,"eccentricity":0.0001225,"inclination_deg":53.1593,"raan_deg":57.0979,"arg_perigee_deg":83.2647,"mean_anomaly_deg":276.8495,"bstar":0.00049584,"rev_number":5054,"period_min":93.847516245386,"perigee_km":461.85348662128,"apogee_km":463.52948960087,"semimajor_km":6840.8284881111,"source":"CELESTRAK","updated_at":"2026-09-21T09:00:35.836084Z"}}}